Regional Weather Roundup
Issued by NWS Spokane, WA

Home | Current Version | Previous Version | Text Only | Print | Product List | Glossary On
Versions: 1 2 3 4 5 6 7 8 9 10 11 12 13 14 15 16 17 18 19 20 21 22 23 24 25 26 27 28 29 30 31 32 33 34 35 36 37 38 39 40 41 42 43 44 45 46 47 48 49 50
000
NZUS01 KOTX 191625
RWROTX

Eastern Washington/Northern Idaho Roundup
National Weather Service, Spokane WA
900 AM PDT THU APR 19 2018

Note: "fair" indicated few or no clouds below 12,000 feet with no
significant weather and/or obstructions to visibility.

...Northeast Washington and Northern Idaho Panhandle...

CITY           SKY/WX    TMP DP  RH WIND       PRES   REMARKS
Spokane Intl   MOSUNNY   44  32  62 NE9       30.14S
Spokane Downto SUNNY     44  32  62 SW5       30.16R
Coeur d Alene  SUNNY     44  32  62 N18       30.14S
Deer Park      SUNNY     47  31  53 NE10      30.16R
Sandpoint      SUNNY     45  32  61 NE9G17    30.16S
Bonners Ferry  FAIR      43  32  65 NW5       30.18F

...Southeast Washington and southern Idaho Panhandle...

CITY           SKY/WX    TMP DP  RH WIND       PRES   REMARKS
Walla Walla    SUNNY     46  37  71 CALM      30.17R
Pullman/Moscow SUNNY     46  33  60 NW6       30.12R
Lewiston       SUNNY     50  35  56 CALM      30.13R
Lowell           N/A     46  38  73 CALM      30.13F
Grangeville    FAIR      45  34  65 CALM      30.09S

...Columbia Basin...

CITY           SKY/WX    TMP DP  RH WIND       PRES   REMARKS
Ephrata        SUNNY     52  30  43 N13       30.18R
Moses Lake     SUNNY     52  30  43 N9        30.19R
Pasco          SUNNY     51  35  54 N14       30.21R
Richland       SUNNY     56  33  41 N10       30.20S
Hermiston      SUNNY     51  34  52 CALM      30.19R
Pendleton      SUNNY     46  33  60 NW9       30.17R

...East Slopes Cascades...

CITY           SKY/WX    TMP DP  RH WIND       PRES   REMARKS
The Dalles     SUNNY     53  40  61 N9        30.21R
Yakima         SUNNY     53  33  46 N8        30.20S
Ellensburg     SUNNY     43  34  70 CALM      30.20R
Wenatchee      SUNNY     44  33  65 W10       30.21S
Winthrop       FAIR      39  27  61 CALM      30.22F
Omak           SUNNY     48  34  58 N12       30.21S
Sunnyside      SUNNY     51  35  54 W9        30.19S

...Southern British Columbia...

CITY           SKY/WX    TMP DP  RH WIND       PRES   REMARKS
Penticton      MOSUNNY   45  34  65 N6        30.24S
Castlegar      SUNNY     41 N/A N/A NW8       30.23F
Cranbrook      PTSUNNY   41  25  52 N5        30.19S
Osoyoos          N/A     45  34  65 SW1         N/A
Creston          N/A     43  32  65 NW6         N/A

...Western Montana...

CITY           SKY/WX    TMP DP  RH WIND       PRES   REMARKS
Kalispell      MOSUNNY   44  27  51 NE9       30.14S
Missoula       SUNNY     42  27  55 W3        30.13S

...Neighboring Cities...

CITY           SKY/WX    TMP DP  RH WIND       PRES   REMARKS
Seattle        MOSUNNY   49  41  74 N6        30.26R
Portland       MOSUNNY   47  41  80 CALM      30.26R
Boise          CLOUDY    47  34  60 W3        29.94F
Great Falls    PTSUNNY   39  29  67 W6        30.14F
Calgary        MOSUNNY   41  21  45 S3        30.14F



USA.gov is the U.S. government's official web portal to all federal, state and local government web resources and services.